Location: Unspecified
(42.1900°N, 71.3291°W)
Time: 20:20:26
(UTC-04:00)

Okean 3 - Visible Passes

Search period start: 25 April 2017 00:00
Search period end: 05 May 2017 00:00
Orbit: 577 x 604 km, 82.5° (Epoch: 24 April)

Date Brightness Start Highest point End Pass type
(mag) Time Alt. Az. Time Alt. Az. Time Alt. Az.
25 Apr 6.0 22:34:35 12° NE 22:34:35 12° NE 22:35:03 10° NE visible
26 Apr 6.0 00:11:07 19° NNW 00:11:07 19° NNW 00:12:39 10° NNW visible
26 Apr 5.7 22:42:32 17° NE 22:42:32 17° NE 22:43:45 10° NNE visible
27 Apr 6.1 00:19:04 16° NW 00:19:04 16° NW 00:20:30 10° NNW visible
27 Apr 5.3 22:50:29 24° NNE 22:50:29 24° NNE 22:52:16 10° NNE visible
28 Apr 6.3 00:27:00 13° NW 00:27:00 13° NW 00:28:00 10° NW visible
28 Apr 5.0 22:58:23 31° NNE 22:58:23 31° NNE 23:00:39 10° NNE visible
29 Apr 4.8 23:06:16 38° N 23:06:16 38° N 23:08:56 10° N visible
30 Apr 5.7 21:37:36 12° ENE 21:37:36 12° ENE 21:38:23 10° NE visible
30 Apr 4.8 23:14:07 37° NW 23:14:07 37° NW 23:17:06 10° N visible
01 May 5.2 21:45:26 19° ENE 21:45:26 19° ENE 21:47:28 10° NE visible
01 May 5.1 23:21:57 29° WNW 23:21:57 29° WNW 23:25:07 10° NNW visible
02 May 4.6 21:53:13 28° ENE 21:53:13 28° ENE 21:56:11 10° NNE visible
02 May 5.6 23:29:45 21° WNW 23:29:48 21° WNW 23:32:59 10° NNW visible
03 May 3.8 22:00:59 45° E 22:00:59 45° E 22:04:42 10° NNE visible
03 May 6.0 23:37:31 14° W 23:38:13 14° WNW 23:40:33 10° NW visible
04 May 3.2 22:08:42 70° ESE 22:08:54 72° E 22:13:05 10° NNE visible
